Showing default

SHARJAHSAT-2, 68444

Orbit data source: Space-Track

SHARJAHSAT-2, 68444 is a payload satellite owned by Sharjah SAAST (AE) in SSO that was launched on Mon, 30 Mar 2026 UTC via an FALCON 9 launch vehicle from the Air Force Western Test Range (AFWTR). Payload-class satellites include a variety of spacecraft equipped with specific instruments for various scientific and technological missions. These include communications satellites like Starlink; space stations such as the ISS; scientific satellites like the Hubble; Earth observation satellites from companies like Planet Labs, Umbra, and HawkEye 360; GPS; miniature CubeSats for education and research; and military/defense satellites.

Loading next visibility...
Identifier
68444, 2026-067AE
Orbit
SSO
Country
Flag of AEAE / UAE
Related business
Manufacturer
Sharjah SAAST
Mission
Operational Amateur Technology
Bus & Motor
CUBESAT 6U, Unknown motor
Mass
~10 kg wet, ~10 kg dry
Launch date (UTC)
2026-03-30 (5 months ago)
Launch vehicle
FALCON 9
Launch site
Air Force Western Test Range (AFWTR)
Object type
Payload
Rocket body
Debris
Shape & HBR
Box, 0.1 m
Radar Cross Section
0.035 m², Medium (>0.1 m² and < 1m²)

Expand to show TLE details & history
Last TLE update: 17 hours ago

TLE from 17 hours ago
0 SHARJAHSAT-2
1 68444U 26067AE  26236.35337146  .00005881  00000-0  27913-3 0  9995
2 68444  97.4626 194.0670 0003516  97.9793 262.1841 15.19632294 22299
Epoch: 2026-08-24T08:28Z
TLE epoch observation values (Epoch: 2026-08-24T08:28:51.294Z)
Latitude
0.00001°
Longitude
94.21698°
Altitude
510.369 km
Speed
7.609 km/s
True Right ascension
12h 56m 16s
True Declination
0° 00' 00"
Sunlit
Object was in daylight at epoch
Visualization orbit readout
Latitude
Unknown
Longitude
Unknown
Altitude
Unknown
Speed
Unknown
Apparent Right ascension
Unknown
Apparent Declination
Unknown
Sunlit
N/A
Visualization observer readout
Local Sidereal Time
17:09:29
Azimuth
Unknown
Elevation
Unknown
Doppler factor
Unknown
Orbital elements
Apogee altitude
506.34 km
Perigee altitude
501.5 km
Semi-major axis
6,882.057 km
Eccentricity
0.00035
Inclination
97.4626°
RAAN
194.067°
Arg. of periapsis
97.9793°
True anomaly
262.14419°
Mean anomaly
262.1841°
Eccentric anomaly
262.16414°
Mean motion
3.80159 °/min
Orbital period
94.7 mins
BSTAR
0.00027913
Loading maneuver chart data...
Computing Atmospheric mass density...
Loading historical data...
Loading historical data...
Loading historical data...
Loading historical data...
Loading historical data...
Loading historical data...
Loading historical data...

Documentation

Showing up to 5 results
|